[[{"header":{"parameterUnit":"m.s-1","parameterCategory":1,"la1":30.2991,"la2":30.254,"lo1":-89.0895,"lo2":-89.0444,"dy":0.0017,"dx":0.0017,"nx":28,"ny":28,"refTime":"2023-08-27T21:00:00:Z","depth":0,"parameterNumber":2,"parameterNumberName":"U-component_of_WINDS"},"data":[0,0,0,0,0,0,0,0,0,0,0,0,0,0,0,0,0,0,0,0,0,0,0,0,0,0,0,0,0,0,0,0,0,0,0,0,0,0,0,0,0,0,0,0,0,0,0,0,0,0,0,0,0,0,0,0,0,0,0.9176,0.9178,0,0.9305,0.9306,0.9308,0.9344,0.9344,0.9343,0.9342,0.9473,0.9477,0.9481,0,0,0,0,0,0,0,0,0,0,0,0,0,0.8961,0.8965,0.9176,0.9178,0.9179,0.9305,0.9306,0.9308,0.9345,0.9344,0.9343,0.9342,0.9472,0.9477,0.9482,0,0,0,0,0,0,0,0,0,0,0,0,0,0.9069,0.8966,0.9176,0.9213,0.9217,0.9304,0.9306,0.9309,0.9345,0.9344,0.9343,0.9342,0.947,0.9476,0.9482,0.9542,0,0,0.9501,0.9504,0,0,0,0,0,0,0,0,0.9063,0.9077,0.9206,0.921,0.9216,0.9308,0.9279,0.9387,0.9345,0.9296,0.9342,0.9341,0.9419,0.9429,0.9456,0.9548,0.9553,0.9502,0.9506,0.9508,0.951,0,0,0,0,0,0,0,0.9055,0.9071,0.9227,0.9208,0.9214,0.9223,0.9237,0.9299,0.9362,0.93,0.9303,0.9318,0.9421,0.945,0.9459,0.9555,0.9502,0.9507,0.9511,0.9514,0.9703,0.9704,0,0,0,0,0,0,0.9042,0.9065,0.9223,0.9231,0.9135,0.9227,0.9243,0.9279,0.9361,0.9373,0.9319,0.9319,0.9439,0.9452,0.9464,0.9538,0.9508,0.9514,0.9518,0.9701,0.9703,0.9704,0,0,0,0,0,0,0.9037,0.9055,0.9218,0.9149,0.917,0.9232,0.9272,0.9282,0.931,0.9375,0.9387,0.9336,0.9439,0.9455,0.9522,0.9543,0.9517,0.9523,0.97,0.9702,0.9704,0.9688,0,0,0,0,0,0,0.903,0.9053,0.9077,0.9149,0.9174,0.9274,0.9274,0.9285,0.9321,0.9323,0.9395,0.9405,0.944,0.9513,0.9528,0.9552,0.9527,0.9698,0.9701,0.9703,0.9687,0.9689,0.9691,0,0,0,0,0,0.9023,0.9067,0.9078,0.9097,0.9204,0.9275,0.9289,0.9328,0.9323,0.9346,0.9388,0.9403,0.9539,0.9519,0.9537,0.9563,0.9697,0.97,0.9703,0.9686,0.9689,0.9691,0,0,0,0,0,0,0.8995,0.9077,0.909,0.9159,0.921,0.9281,0.9312,0.933,0.9383,0.9382,0.9428,0.9444,0.9507,0.9542,0.9519,0.9624,0.9618,0.9625,0.9599,0.9603,0.9605,0.9595,0.9533,0,0,0,0,0,0.8997,0.9048,0.9117,0.9172,0.9197,0.925,0.9282,0.9308,0.9362,0.9384,0.9431,0.9483,0.9537,0.9572,0.9626,0.9693,0.9709,0.9719,0.9721,0.9722,0.9727,0.9765,0.9771,0.9714,0.9714,0.9714,0,0,0.9002,0.9053,0.9082,0.9167,0.921,0.9261,0.9268,0.9322,0.9361,0.9392,0.9458,0.9494,0.9556,0.9623,0.9655,0.9653,0.9747,0.9726,0.9727,0.9731,0.9769,0.9774,0.9779,0.9716,0.9716,0.9715,0,0,0.9036,0.908,0.913,0.9173,0.9237,0.9273,0.9285,0.9354,0.9379,0.9446,0.9471,0.9517,0.961,0.9653,0.9686,0.9737,0.9753,0.9754,0.9765,0.9801,0.9805,0.981,0.9827,0.9833,0.9759,0.9759,0.9759,0,0.9033,0.9113,0.9154,0.9207,0.9244,0.9275,0.9326,0.9365,0.9443,0.9467,0.9465,0.9582,0.9626,0.9703,0.9715,0.9742,0.9757,0.9745,0.9802,0.9806,0.9811,0.9828,0.9835,0.9758,0.9758,0.9758,0.9758,0,0.9106,0.916,0.9193,0.9268,0.9309,0.936,0.9409,0.9445,0.9467,0.9502,0.9571,0.9624,0.9689,0.9709,0.9731,0.979,0.9787,0.9793,0.9787,0.9815,0.9832,0.9839,0.9758,0.9758,0.9758,0.9758,0,0,0.9126,0.9224,0.9235,0.9269,0.9343,0.9386,0.9439,0.9503,0.9532,0.9586,0.9631,0.9709,0.9715,0.9753,0.978,0.9812,0.9849,0.9814,0.9816,0.9818,0.9916,0.9911,0.9918,0.986,0.9861,0.9862,0.9911,0,0.9169,0.9265,0.9304,0.9382,0.9433,0.9464,0.951,0.956,0.9595,0.9643,0.9681,0.9735,0.9739,0.9762,0.9795,0.9837,0.9869,0.9834,0.9902,0.9904,0.9885,0.9927,0.9922,0.9965,0.9918,0.9919,0.992,0,0.9232,0.9286,0.9369,0.9437,0.946,0.9501,0.9562,0.9608,0.9665,0.9688,0.9731,0.9757,0.9813,0.9805,0.9884,0.9859,0.9889,0.9914,0.9917,0.9924,0.9913,0.9935,0.998,0.9986,0.9931,0.993,0.9929,0,0.9237,0.9331,0.9393,0.9422,0.9502,0.953,0.9565,0.9621,0.9657,0.9711,0.9735,0.9795,0.9827,0.9873,0.9914,0.9904,0.9988,0.9983,1.0009,1.0008,1.0025,1.0023,1.0074,1.0045,1.0045,1.0045,1.0045,0,0.9281,0.9331,0.9396,0.9434,0.9491,0.9535,0.959,0.9626,0.9676,0.9722,0.9752,0.9794,0.9846,0.9894,0.9927,0.9987,1.0001,1.0021,1.0029,1.0018,1.0016,1.0038,1.0036,1.0047,1.0046,1.0046,1.0045,0,0.9296,0.9342,0.9412,0.9483,0.9502,0.954,0.96,0.9638,0.9675,0.9732,0.9748,0.9805,0.9864,0.9909,0.9986,1.0008,1.0071,1.008,1.0051,1.0055,1.0078,1.0075,1.0145,1.0157,1.012,1.012,1.012,0,0.9321,0.9359,0.9435,0.9468,0.9502,0.9555,0.9592,0.9637,0.9674,0.9743,0.9772,0.9833,0.9884,0.9977,1.0025,1.0084,1.0094,1.0115,1.0103,1.0091,1.0094,1.009,1.0094,1.0116,1.0116,1.0116,1.0116,0,0.9359,0.938,0.9432,0.9493,0.9536,0.9586,0.9636,0.9661,0.9716,0.9756,0.9817,0.9856,0.9935,0.9995,1.0058,1.0094,1.0114,1.012,1.0128,1.0117,1.0099,1.0109,1.0055,1.0117,1.0117,1.0117,1.0117,1.0117,0.9379,0.9415,0.9474,0.9531,0.9574,0.962,0.9659,0.9701,0.9753,0.982,0.9844,0.9906,0.9963,1.005,1.0087,1.0136,1.0137,1.015,1.0153,1.0155,1.0154,1.0092,1.0148,1.0148,1.0148,1.0148,1.0148,0,0.9418,0.9458,0.951,0.958,0.9625,0.9641,0.9697,0.9734,0.9788,0.984,0.989,0.9959,1.0018,1.0071,1.0132,1.0161,1.0172,1.0176,1.0174,1.0182,1.015,1.0136,1.0166,1.0166,1.0166,1.0166,1.0166,1.0166,0.9444,0.9506,0.9534,0.9617,0.9656,0.9718,0.9749,0.9792,0.9833,0.991,0.9959,0.9993,1.0045,1.011,1.0165,1.0179,1.02,1.0201,1.0217,1.0186,1.0184,1.0182,1.0169,1.0205,1.0205,1.0245,1.0245,1.0246]},{"header":{"parameterUnit":"m.s-1","parameterCategory":1,"la1":30.2991,"la2":30.254,"lo1":-89.0895,"lo2":-89.0444,"dy":0.0017,"dx":0.0017,"nx":28,"ny":28,"refTime":"2023-08-27T21:00:00:Z","depth":0,"parameterNumber":3,"parameterNumberName":"V-component_of_WINDS"},"data":[0,0,0,0,0,0,0,0,0,0,0,0,0,0,0,0,0,0,0,0,0,0,0,0,0,0,0,0,0,0,0,0,0,0,0,0,0,0,0,0,0,0,0,0,0,0,0,0,0,0,0,0,0,0,0,0,0,0,3.3829,3.3829,0,3.3808,3.3807,3.3807,3.3708,3.3705,3.3703,3.3701,3.368,3.3681,3.3683,0,0,0,0,0,0,0,0,0,0,0,0,0,3.3785,3.3786,3.3829,3.3829,3.3829,3.3808,3.3807,3.3807,3.3708,3.3705,3.3702,3.37,3.3679,3.3681,3.3683,0,0,0,0,0,0,0,0,0,0,0,0,0,3.3788,3.3786,3.3829,3.3777,3.3772,3.3808,3.3807,3.3807,3.3709,3.3705,3.3702,3.3698,3.3679,3.3681,3.3683,3.3769,0,0,3.3691,3.3692,0,0,0,0,0,0,0,0,3.3788,3.379,3.3785,3.378,3.3775,3.3757,3.3784,3.3794,3.371,3.3733,3.3701,3.3697,3.3708,3.3708,3.3712,3.3768,3.3767,3.3691,3.3693,3.3694,3.3694,0,0,0,0,0,0,0,3.3788,3.379,3.3821,3.3785,3.3779,3.3754,3.3751,3.3786,3.3741,3.373,3.3723,3.3722,3.3705,3.371,3.3711,3.3767,3.3691,3.3693,3.3695,3.3696,3.3892,3.3895,0,0,0,0,0,0,3.3795,3.379,3.3821,3.382,3.3773,3.3758,3.3754,3.3766,3.374,3.3732,3.3725,3.3717,3.3707,3.3708,3.371,3.3807,3.3694,3.3696,3.3697,3.3888,3.3892,3.3896,0,0,0,0,0,0,3.3794,3.3798,3.3822,3.3803,3.3804,3.3762,3.3777,3.3768,3.3772,3.3736,3.3727,3.3738,3.3705,3.3706,3.3755,3.3805,3.3697,3.3699,3.3883,3.3889,3.3894,3.4005,0,0,0,0,0,0,3.3793,3.3799,3.3831,3.3805,3.3806,3.3868,3.378,3.377,3.3776,3.3766,3.3746,3.3739,3.3702,3.3752,3.3757,3.3807,3.3701,3.3879,3.3886,3.3893,3.3996,3.4013,3.4028,0,0,0,0,0,3.3792,3.3863,3.3833,3.3837,3.3845,3.3871,3.3872,3.3827,3.3781,3.3813,3.3789,3.374,3.3799,3.3757,3.3763,3.3814,3.3875,3.3884,3.3892,3.3989,3.401,3.4027,0,0,0,0,0,0,3.3896,3.3858,3.3825,3.3889,3.3884,3.3854,3.3893,3.3851,3.3859,3.3849,3.3794,3.379,3.3847,3.3835,3.379,3.3895,3.3829,3.3839,3.3901,3.392,3.3936,3.3937,3.3703,0,0,0,0,0,3.3927,3.3951,3.3917,3.3977,3.3976,3.3935,3.3945,3.3911,3.3904,3.3901,3.3881,3.3876,3.3893,3.3906,3.392,3.3994,3.3988,3.4032,3.4048,3.4061,3.407,3.4108,3.4127,3.3924,3.3924,3.3924,0,0,3.399,3.3972,3.3991,3.3997,3.3989,3.4016,3.3934,3.3965,3.3985,3.3906,3.395,3.3936,3.3927,3.3988,3.4015,3.398,3.4125,3.4072,3.4082,3.4084,3.4119,3.4138,3.4155,3.393,3.3929,3.3928,0,0,3.4118,3.4108,3.4156,3.415,3.4139,3.4111,3.4123,3.41,3.4087,3.4131,3.4072,3.4094,3.4126,3.4121,3.4123,3.4251,3.4205,3.4257,3.4339,3.4377,3.4393,3.4407,3.4452,3.4469,3.4266,3.4266,3.4266,0,3.4198,3.4236,3.4187,3.4222,3.4227,3.4156,3.4205,3.4202,3.4196,3.4201,3.4163,3.42,3.4189,3.4249,3.428,3.4284,3.4296,3.4259,3.4395,3.4408,3.442,3.4463,3.448,3.4273,3.4272,3.4271,3.4271,0,3.4334,3.4361,3.4402,3.4398,3.4407,3.4449,3.4407,3.4422,3.4388,3.4365,3.441,3.4394,3.4404,3.4416,3.4383,3.4471,3.445,3.4404,3.4336,3.4447,3.4486,3.4502,3.4282,3.4279,3.4277,3.4276,0,0,3.4528,3.4496,3.4512,3.4509,3.4492,3.4511,3.4551,3.456,3.4574,3.4572,3.4604,3.4632,3.4589,3.4592,3.4558,3.4591,3.4693,3.4541,3.454,3.457,3.4789,3.4824,3.4843,3.4663,3.4666,3.4668,3.479,0,3.465,3.4715,3.4672,3.4743,3.4767,3.4701,3.4735,3.4729,3.4708,3.4726,3.4703,3.4724,3.4666,3.4667,3.4697,3.4674,3.4736,3.4665,3.4692,3.4693,3.4696,3.4864,3.49,3.5016,3.4805,3.4807,3.4809,0,3.4802,3.4806,3.488,3.4858,3.4866,3.4898,3.4903,3.492,3.4912,3.4894,3.4897,3.4855,3.4892,3.4825,3.4876,3.4828,3.4837,3.4827,3.4831,3.4831,3.4758,3.4869,3.5052,3.5069,3.4833,3.4831,3.4829,0,3.4935,3.496,3.5007,3.5007,3.4982,3.5006,3.4997,3.4984,3.4992,3.4997,3.5002,3.5011,3.5016,3.5024,3.4985,3.494,3.5041,3.4971,3.5028,3.5029,3.5052,3.5051,3.5239,3.5058,3.5058,3.5057,3.5057,0,3.5076,3.5124,3.5067,3.5096,3.5148,3.5098,3.5151,3.5135,3.5124,3.5149,3.5093,3.5118,3.5065,3.5085,3.5055,3.5101,3.5104,3.5091,3.5083,3.5096,3.5098,3.5101,3.5092,3.5062,3.5061,3.506,3.5059,0,3.5233,3.5197,3.5244,3.5217,3.5211,3.5251,3.5227,3.5253,3.5229,3.5261,3.5266,3.5228,3.5248,3.5211,3.5226,3.5206,3.5271,3.525,3.5274,3.5268,3.5326,3.5321,3.5523,3.5546,3.5351,3.5353,3.5354,0,3.5326,3.5361,3.5337,3.535,3.5344,3.5365,3.5373,3.5326,3.5336,3.5329,3.5356,3.5372,3.5381,3.5417,3.5391,3.5403,3.5381,3.5451,3.5383,3.5395,3.5382,3.5381,3.5384,3.5465,3.5467,3.5469,3.5471,0,3.5493,3.5474,3.5487,3.5495,3.5506,3.5509,3.5509,3.5523,3.5473,3.5488,3.5507,3.5515,3.5531,3.5547,3.5552,3.5543,3.55,3.5493,3.5506,3.5521,3.5533,3.5527,3.5312,3.5488,3.5486,3.5485,3.5484,3.5484,3.5621,3.5649,3.5636,3.5653,3.5648,3.5649,3.5672,3.5651,3.5666,3.5675,3.5646,3.5673,3.5663,3.5666,3.5662,3.5682,3.5651,3.5671,3.5676,3.5682,3.5691,3.553,3.5683,3.5682,3.5682,3.5681,3.5681,0,3.5785,3.5774,3.579,3.5791,3.5805,3.5762,3.5759,3.5774,3.5797,3.5792,3.5803,3.5826,3.5841,3.5817,3.5828,3.5849,3.583,3.5854,3.5852,3.5851,3.5718,3.5705,3.587,3.587,3.587,3.587,3.587,3.587,3.5872,3.5918,3.5897,3.5939,3.5927,3.5952,3.5955,3.5956,3.5951,3.5979,3.5992,3.5975,3.5962,3.5972,3.5985,3.5977,3.5984,3.6016,3.6002,3.5878,3.586,3.5842,3.583,3.6018,3.6018,3.6132,3.6133,3.6134]}]]